Preview of NWS' New Version of Forecast
This preview is not operational and should not be used for support decisions.
Latest weather observations around

WX6HNX-11 Sequoia NP (AT846)

Using English Units (Switch to International System of Units)
Date/ Time (PDT) Wind (mph) Vis. (mi) Weather Sky Cond. Temp (°F) Rel. Humidity Wind Chill (°F) Heat Index (°F) Pressure Precip. (in)
Air Dwpt 6 hour Altimeter (inHg) Sea level (inHg) 1 hr 3 hr 6 hr
Max Min
Notice The following observation data may not be complete
Jun 21 11:05     Clear            %              
Jun 21 11:00 WSW 7   Clear   76 33     21%   74          
Notice The following observation data may not be complete
Jun 21 10:55     Clear            %              
Jun 21 10:50 WSW 5   Clear   75 36     24%   73 30.25        
Jun 21 10:45 WSW 6   Clear   75 32     21%   73 30.25        
Jun 21 10:40 WSW 5   Clear   75 34     22%   73 30.25        
Jun 21 10:35 WSW 3   Clear   76 34     22%   74 30.24        
Jun 21 10:30 WSW 4   Clear   76 27     16%   74 30.25        
Jun 21 10:20 WSW 6   Clear   77 26     15%   75 30.24        
Jun 21 10:15 WSW 4   Clear   76 20     12%   74 30.24        
Jun 21 09:30 SW 3   Clear   74 20     13%   72 30.24        
Jun 21 09:00 Calm   Clear   67 40     37%     30.24        
Jun 21 08:55 Calm   Clear   66 39     37%     30.24        
Jun 21 08:40 Calm   Clear   62 40     45%     30.25        
Jun 21 08:35 Calm   Clear   61 40     45%     30.25        
Jun 21 08:30 Calm   Clear   60 41     50%     30.25        
Jun 21 08:25 Calm   Clear   58 38     47%     30.26        
Jun 21 08:20 Calm   Clear   57 36     45%     30.26        
Jun 21 08:15 Calm   Clear   56 36     46%     30.26        
Jun 21 08:08 Calm   Clear   55 37     50%     30.26        
Jun 21 08:03 Calm   Clear   54 37     53%     30.26        
Jun 21 07:58 Calm   Clear   53 35     51%     30.26        
Jun 21 07:53 Calm   Clear   52 36     54%     30.26        
Jun 21 07:48 Calm   Clear   51 36     57%     30.26        
Jun 21 07:43 Calm   Clear   51 36     56%     30.26        
Jun 21 07:33 Calm   Clear   49 36     61%     30.26        
Jun 21 07:28 Calm   Clear   48 35     60%     30.26        
Jun 21 07:23 Calm   Clear   47 34     60%     30.26        
Jun 21 07:18 Calm   Clear   47 35     62%     30.27        
Jun 21 07:13 Calm   Clear   46 34     62%     30.27        
Jun 21 07:08 Calm   Clear   46 33     61%     30.27        
Jun 21 07:03 Calm   Clear   45 32     61%     30.27        
Jun 21 06:58 Calm   Clear   45 32     60%     30.27        
Jun 21 06:53 Calm   Clear   45 32     61%     30.27        
Jun 21 06:48 Calm   Clear   45 32     60%     30.27        
Jun 21 06:43 Calm   Clear   45 32     61%     30.27        
Jun 21 06:38 Calm   Clear   45 32     61%     30.27        
Jun 21 06:33 Calm   Clear   45 32     60%     30.27        
Jun 21 06:28 Calm   Clear   45 32     61%     30.27        
Jun 21 06:23 Calm   Clear   45 32     60%     30.27        
Jun 21 06:15 Calm   Clear   45 32     60%     30.27        
Jun 21 06:10 Calm   Clear   45 32     60%     30.27        
Jun 21 06:05 Calm   Clear   45 32     61%     30.26        
Jun 21 06:00 Calm   Clear   45 32     61%     30.26        
Jun 21 05:55 Calm   Clear   45 32     61%     30.26        
Jun 21 05:50 Calm   Clear   45 32     61%     30.26        
Jun 21 05:45 Calm   Clear   45 32     60%     30.26        
Jun 21 05:40 Calm   Clear   45 32     61%     30.26        
Jun 21 05:35 Calm   Clear   45 33     62%     30.26        
Jun 21 05:26 Calm   Clear   45 33     62%     30.26        
Jun 21 05:21 Calm   Clear   45 33     62%     30.25        
Jun 21 05:16 Calm   Clear   45 32     61%     30.25        
Jun 21 05:11 Calm   Clear   45 32     60%     30.25        
Jun 21 05:06 Calm   Clear   45 33     62%     30.25        
Jun 21 05:01 Calm   Clear   45 32     61%     30.25        
Jun 21 04:56 Calm   Clear   45 33     62%     30.25        
Jun 21 04:51 Calm   Clear   45 32     61%     30.25        
Jun 21 04:46 Calm   Clear   45 33     62%     30.25        
Jun 21 04:41 Calm   Clear   45 33     62%     30.25        
Jun 21 04:36 Calm   Clear   45 33     63%     30.25        
Jun 21 04:31 Calm   Clear   45 33     62%     30.25        
Jun 21 04:26 Calm   Clear   46 33     61%     30.25        
Jun 21 04:21 Calm   Clear   46 34     62%     30.25        
Jun 21 04:16 Calm   Clear   46 34     63%     30.26        
Jun 21 04:11 Calm   Clear   46 34     63%     30.25        
Jun 21 04:01 Calm   Clear   46 34     62%     30.25        
Jun 21 03:56 Calm   Clear   46 33     61%     30.26        
Jun 21 03:51 Calm   Clear   46 34     63%     30.25        
Jun 21 03:46 Calm   Clear   46 33     61%     30.25        
Jun 21 03:41 Calm   Clear   46 33     61%     30.25        
Jun 21 03:31 Calm   Clear   47 35     62%     30.25        
Jun 21 03:26 Calm   Clear   47 35     62%     30.26        
Jun 21 03:21 Calm   Clear   47 35     63%     30.25        
Jun 21 03:16 Calm   Clear   47 34     61%     30.26        
Jun 21 03:11 Calm   Clear   47 35     62%     30.26        
Jun 21 02:59 Calm   Clear   47 35     62%     30.26        
Jun 21 02:54 Calm   Clear   47 35     62%     30.26        
Jun 21 02:49 Calm   Clear   48 36     62%     30.26        
Jun 21 02:44 Calm   Clear   48 36     62%     30.26        
Jun 21 02:39 Calm   Clear   48 36     62%     30.26        
Jun 21 02:34 Calm   Clear   48 36     62%     30.26        
Jun 21 02:29 Calm   Clear   48 36     62%     30.26        
Jun 21 02:24 Calm   Clear   48 36     63%     30.26        
Jun 21 02:19 Calm   Clear   48 36     63%     30.26        
Jun 21 02:14 Calm   Clear   48 36     62%     30.27        
Jun 21 02:09 Calm   Clear   49 37     63%     30.27        
Jun 21 01:59 Calm   Clear   49 37     62%     30.27        
Jun 21 01:54 Calm   Clear   49 37     62%     30.27        
Jun 21 01:49 Calm   Clear   49 37     62%     30.27        
Jun 21 01:44 Calm   Clear   49 36     61%     30.26        
Jun 21 01:34 Calm   Clear   49 37     62%     30.26        
Jun 21 01:29 Calm   Clear   49 37     62%     30.26        
Jun 21 01:24 Calm   Clear   50 38     62%     30.26        
Jun 21 01:19 Calm   Clear   50 37     61%     30.27        
Jun 21 01:14 Calm   Clear   50 38     62%     30.26        
Jun 21 01:09 Calm   Clear   50 38     62%     30.26        
Jun 21 00:58 Calm   Clear   50 37     61%     30.26        
Jun 21 00:48 Calm   Clear   51 38     61%     30.27        
Jun 21 00:43 Calm   Clear   51 38     61%     30.26        
Jun 21 00:38 Calm   Clear   51 38     62%     30.26        
Jun 21 00:33 Calm   Clear   51 38     61%     30.26        
Jun 21 00:23 Calm   Clear   51 37     59%     30.26        
Jun 21 00:18 Calm   Clear   51 38     60%     30.26        
Jun 21 00:13 Calm   Clear   51 38     60%     30.28        
Jun 21 00:08 Calm   Clear   52 39     60%     30.28        
Jun 21 00:03 Calm   Clear   52 39     60%     30.28        
Jun 20 23:58 Calm   Clear   52 39     60%     30.28        
Jun 20 23:53 Calm   Clear   52 38     59%     30.28        
Jun 20 23:48 Calm   Clear   52 38     59%     30.28        
Jun 20 23:43 Calm   Clear   52 38     59%     30.28        
Jun 20 23:38 Calm   Clear   53 39     59%     30.28        
Jun 20 23:33 Calm   Clear   53 39     60%     30.28        
Jun 20 23:28 Calm   Clear   53 39     59%     30.28        
Jun 20 23:23 Calm   Clear   54 40     58%     30.27        
Jun 20 23:18 Calm   Clear   54 40     59%     30.27        
Jun 20 23:08 Calm   Clear   54 39     57%     30.27        
Jun 20 23:03 Calm   Clear   54 40     59%     30.27        
Jun 20 22:58 Calm   Clear   55 40     58%     30.27        
Jun 20 22:53 Calm   Clear   55 41     59%     30.27        
Jun 20 22:43 Calm   Clear   55 41     60%     30.27        
Jun 20 22:38 Calm   Clear   56 43     61%     30.27        
Jun 20 22:33 Calm   Clear   56 43     62%     30.27        
Jun 20 22:23 Calm   Clear   56 44     63%     30.27        
Jun 20 22:18 Calm   Clear   57 46     67%     30.27        
Jun 20 22:08 Calm   Clear   57 46     67%     30.27        
Jun 20 22:03 Calm   Clear   58 47     67%     30.27        
Jun 20 21:58 Calm   Clear   58 47     67%     30.26        
Jun 20 21:53 Calm   Clear   58 46     64%     30.26        
Jun 20 21:48 Calm   Clear   59 46     63%     30.26        
Jun 20 21:38 Calm   Clear   60 47     61%     30.26        
Jun 20 21:33 Calm   Clear   60 47     61%     30.25        
Jun 20 21:28 Calm   Clear   60 47     61%     30.25        
Jun 20 21:23 Calm   Clear   61 47     60%     30.25        
Jun 20 21:18 Calm   Clear   61 48     62%     30.25        
Jun 20 21:13 Calm   Clear   62 48     61%     30.25        
Jun 20 21:08 Calm   Clear   62 48     61%     30.24        
Jun 20 21:03 Calm   Clear   62 47     57%     30.27        
Jun 20 20:58 Calm   Clear   63 50     62%     30.27        
Jun 20 20:53 Calm   Clear   63 49     61%     30.27        
Jun 20 20:48 Calm   Clear   64 50     61%     30.27        
Jun 20 20:43 Calm   Clear   64 49     59%     30.27        
Jun 20 20:33 Calm   Clear   65 50     59%     30.27        
Jun 20 20:28 Calm   Clear   65 51     61%     30.27        
Jun 20 20:23 Calm   Clear   66 53     62%     30.26        
Jun 20 20:18 Calm   Clear   66 53     63%     30.24        
Jun 20 20:13 Calm   Clear   67 54     63%     30.24        
Jun 20 20:08 Calm   Clear   67 54     62%     30.24        
Jun 20 20:03 Calm   Clear   67 53     61%     30.24        
Jun 20 19:58 Calm   Clear   68 54     61%     30.24        
Jun 20 19:51 Calm   Clear   68 54     60%     30.24        
Jun 20 19:41 Calm   Clear   69 54     59%     30.24        
Jun 20 19:34 Calm   Clear   69 54     58%     30.25        
Jun 20 19:29 Calm   Clear   69 53     57%     30.25        
Jun 20 19:24 Calm   Clear   70 54     56%     30.25        
Jun 20 19:19 Calm   Clear   71 54     55%   70 30.25        
Jun 20 19:14 Calm   Clear   71 54     55%   70 30.25        
Jun 20 19:08 WSW 1   Clear   71 53     53%   70 30.26        
Jun 20 18:37 SW 1   Clear   74 51     45%   73 30.26        
Jun 20 18:32 WSW 2   Clear   74 51     44%   73 30.26        
Jun 20 18:27 WSW 1   Clear   74 49     42%   73 30.26        
Jun 20 18:22 SW 2   Clear   74 49     42%   73 30.24        
Jun 20 18:17 WSW 1   Clear   74 47     38%   73 30.24        
Jun 20 18:12 WSW 3   Clear   75 48     39%   74 30.24        
Jun 20 18:07 SW 3   Clear   75 48     38%   74 30.24        
Jun 20 18:02 SW 3   Clear   75 44     33%   74 30.24        
Jun 20 17:57 WSW 5   Clear   75 44     33%   74 30.24        
Jun 20 17:47 WSW 4   Clear   76 42     30%   75 30.24        
Jun 20 17:42 WSW 2   Clear   76 41     29%   75 30.24        
Jun 20 17:37 SW 5   Clear   76 41     28%   75 30.24        
Jun 20 17:27 SW 1   Clear   76 39     26%   75 30.24        
Jun 20 17:22 SW 3   Clear   77 39     26%   76 30.24        
Jun 20 17:17 SW 4   Clear   77 34     21%   75 30.25        
Jun 20 17:07 SW 1   Clear   77 41     28%   76 30.25        
Jun 20 17:02 SW 3   Clear   77 39     26%   76 30.25        
Jun 20 16:57 WSW 5   Clear   78 39     25%   77 30.25        
Jun 20 16:47 SW 2   Clear   78 41     27%   77 30.26        
Jun 20 16:42 WSW 4   Clear   78 41     27%   77 30.26        
Jun 20 16:37 W 2   Clear   78 39     25%   77 30.26        
Jun 20 16:32 SW 3   Clear   79 41     26%   78 30.26        
Jun 20 16:27 WSW 1   Clear   79 40     25%   78 30.26        
Jun 20 16:22 WSW 4   Clear   79 43     28%   78 30.26        
Jun 20 16:03 WSW 4   Clear   79 44     29%   78 30.26        
Jun 20 15:48 SW 6   Clear   77 39     26%   76 30.27        
Jun 20 15:43 WSW 6   Clear   78 41     27%   77 30.27        
Jun 20 15:38 SW 5   Clear   78 40     26%   77 30.27        
Jun 20 15:29 WSW 3   Clear   79 38     23%   78 30.27        
Jun 20 15:24 SW 4   Clear   79 41     26%   78 30.27        
Jun 20 15:19 SW 4   Clear   79 38     23%   78 30.27        
Jun 20 15:14 SW 2   Clear   79 43     28%   78 30.27        
Jun 20 15:09 S 1   Clear   78 39     25%   77 30.27        
Jun 20 15:04 WSW 4   Clear   78 40     26%   77 30.28        
Jun 20 14:59 WSW 6   Clear   78 40     26%   77 30.28        
Jun 20 14:49 SW 3   Clear   79 41     26%   78 30.28        
Jun 20 14:44 WNW 1   Clear   78 41     27%   77 30.27        
Jun 20 14:39 SW 6   Clear   78 44     30%   77 30.27        
Jun 20 14:34 SW 4   Clear   78 44     30%   77 30.27        
Jun 20 14:29 SW 2   Clear   79 44     29%   78 30.27        
Jun 20 14:24 SW 6   Clear   79 44     29%   78 30.27        
Jun 20 14:14 SW 3   Clear   78 45     31%   77 30.28        
Jun 20 14:09 SW 4   Clear   78 43     29%   77 30.28        
Jun 20 14:04 SW 5   Clear   79 42     27%   78 30.28        
Jun 20 13:54 SW 3   Clear   80 44     28%   79 30.28        
Jun 20 13:28 NW 1   Clear   80 40     24%   79 30.26        
Jun 20 13:23 NW 2   Clear   80 41     25%   79 30.26        
Jun 20 13:13 SW 3   Clear   80 40     24%   79 30.26        
Jun 20 13:08 SW 2   Clear   79 40     25%   78 30.26        
Jun 20 13:03 SW 3   Clear   79 41     26%   78 30.26        
Jun 20 12:33 W 2   Clear   79 41     26%   78 30.26        
Jun 20 12:18 SW 4   Clear   78 40     26%   77 30.27        
Jun 20 11:53 WSW 6   Clear   75 38     26%   73 30.27        
Jun 20 11:48 WSW 5   Clear   75 37     25%   73 30.27        
Jun 20 11:33 WSW 3   Clear   75 39     27%   73 30.27        
Jun 20 11:28 WSW 6   Clear   75 38     26%   73 30.27        
Jun 20 11:23 WSW 5   Clear   75 41     29%   74 30.27        
Jun 20 11:18 WSW 4   Clear   74 38     27%   72 30.27        
Jun 20 11:13 WSW 4   Clear   74 41     31%   73 30.27        
Jun 20 11:03 WSW 5   Clear   75 40     28%   74 30.26        
Jun 20 10:58 SW 5   Clear   75 38     26%   73 30.26        
Jun 20 10:53 SW 3   Clear   75 39     27%   73 30.26        
Jun 20 10:43 WSW 5   Clear   75 38     26%   73 30.26        
Jun 20 10:33 WSW 5   Clear   74 34     23%   72 30.26        
Jun 20 10:28 SW 4   Clear   74 35     24%   72 30.26        
Jun 20 10:23 SW 5   Clear   74 41     30%   73 30.26        
Jun 20 10:18 SW 4   Clear   74 41     31%   73 30.26        
Jun 20 10:13 WSW 4   Clear   73 42     33%   72 30.26        
Jun 20 10:08 WSW 5   Clear   73 40     30%   71 30.26        
Jun 20 10:03 SW 3   Clear   73 41     32%   72 30.26        
Jun 20 09:58 SW 4   Clear   73 42     33%   72 30.26        
Jun 20 09:48 WSW 3   Clear   73 42     33%   72 30.26        
Jun 20 09:43 SW 2   Clear   73 43     34%   72 30.26        
Jun 20 09:38 SW 1   Clear   73 43     34%   72 30.26        
Jun 20 09:28 WSW 3   Clear   72 41     33%   70 30.24        
Jun 20 09:18 WSW 1   Clear   69 44     41%     30.24        
Jun 20 09:13 Calm   Clear   68 45     44%     30.24        
Jun 20 09:03 Calm   Clear   65 46     51%     30.24        
Jun 20 08:58 Calm   Clear   64 47     53%     30.24        
Jun 20 08:53 Calm   Clear   63 48     58%     30.24        
Jun 20 08:48 Calm   Clear   62 47     59%     30.24        
Jun 20 08:43 Calm   Clear   61 47     60%     30.24        
Jun 20 08:38 Calm   Clear   60 47     62%     30.24        
Jun 20 08:33 Calm   Clear   59 47     65%     30.24        
Jun 20 08:27 Calm   Clear   59 47     65%     30.24        
Jun 20 08:22 Calm   Clear   58 47     67%     30.24        
Jun 20 08:17 Calm   Clear   57 47     68%     30.24        
Jun 20 08:12 Calm   Clear   56 47     71%     30.24        
Jun 20 08:07 Calm   Clear   55 46     72%     30.24        
Jun 20 07:57 Calm   Clear   54 46     74%     30.24        
Jun 20 07:52 Calm   Clear   53 46     76%     30.24        
Jun 20 07:47 Calm   Clear   52 45     77%     30.25        
Jun 20 07:42 Calm   Clear   51 44     78%     30.25        
Jun 20 07:37 Calm   Clear   50 43     78%     30.25        
Jun 20 07:32 Calm   Clear   49 43     79%     30.25        
Jun 20 07:27 Calm   Clear   49 43     79%     30.25        
Jun 20 07:22 Calm   Clear   48 42     79%     30.25        
Jun 20 07:17 Calm   Clear   47 41     80%     30.25        
Jun 20 07:12 Calm   Clear   47 41     80%     30.25        
Jun 20 07:07 Calm   Clear   46 40     80%     30.25        
Jun 20 07:02 Calm   Clear   46 40     80%     30.25        
Jun 20 06:57 Calm   Clear   46 40     80%     30.25        
Jun 20 06:52 Calm   Clear   45 39     80%     30.25        
Jun 20 06:47 Calm   Clear   45 40     81%     30.25        
Jun 20 06:42 Calm   Clear   45 39     80%     30.25        
Jun 20 06:37 Calm   Clear   45 39     80%     30.25        
Jun 20 06:32 Calm   Clear   45 40     81%     30.25        
Jun 20 06:27 Calm   Clear   45 39     80%     30.25        
Jun 20 06:22 Calm   Clear   45 40     81%     30.25        
Jun 20 06:17 Calm   Clear   45 40     81%     30.24        
Jun 20 06:12 Calm   Clear   45 40     81%     30.24        
Jun 20 06:07 Calm   Clear   45 40     81%     30.24        
Jun 20 06:02 Calm   Clear   45 40     82%     30.24        
Jun 20 05:57 Calm   Clear   45 40     82%     30.24        
Jun 20 05:51 Calm   Clear   45 40     83%     30.24        
Jun 20 05:45 Calm   Clear   45 40     83%     30.24        
Jun 20 05:36 Calm   Clear   45 40     83%     30.24        
Jun 20 05:31 Calm   Clear   46 41     84%     30.24        
Jun 20 05:26 Calm   Clear   46 41     83%     30.24        
Jun 20 05:21 Calm   Clear   46 41     84%     30.24        
Jun 20 05:16 Calm   Clear   46 41     84%     30.24        
Jun 20 05:11 Calm   Clear   46 41     84%     30.24        
Jun 20 05:06 Calm   Clear   46 41     84%     30.24        
Jun 20 05:01 Calm   Clear   46 41     84%     30.24        
Jun 20 04:56 Calm   Clear   46 42     85%     30.24        
Jun 20 04:51 Calm   Clear   46 42     85%     30.24        
Jun 20 04:46 Calm   Clear   46 42     85%     30.24        
Jun 20 04:41 Calm   Clear   46 42     86%     30.24        
Jun 20 04:36 Calm   Clear   46 42     86%     30.24        
Jun 20 04:31 Calm   Clear   47 43     86%     30.24        
Jun 20 04:26 Calm   Clear   47 43     87%     30.24        
Jun 20 04:21 Calm   Clear   47 43     87%     30.24        
Jun 20 04:16 Calm   Clear   47 43     87%     30.24        
Jun 20 04:11 Calm   Clear   47 43     87%     30.24        
Jun 20 04:06 Calm   Clear   47 43     87%     30.24        
Jun 20 04:01 Calm   Clear   47 43     87%     30.24        
Jun 20 03:56 Calm   Clear   47 43     87%     30.24        
Jun 20 03:51 Calm   Clear   47 43     87%     30.24        
Jun 20 03:41 Calm   Clear   47 43     87%     30.23        
Jun 20 03:36 Calm   Clear   48 44     87%     30.24        
Jun 20 03:31 Calm   Clear   48 44     87%     30.24        
Jun 20 03:26 Calm   Clear   48 44     87%     30.24        
Jun 20 03:21 Calm   Clear   48 44     87%     30.24        
Jun 20 03:15 Calm   Clear   48 44     87%     30.24        
Jun 20 03:09 Calm   Clear   48 44     87%     30.24        
Jun 20 03:03 Calm   Clear   48 44     87%     30.24        
Jun 20 02:56 Calm   Clear   48 44     87%     30.24        
Jun 20 02:51 Calm   Clear   48 44     87%     30.24        
Jun 20 02:41 Calm   Clear   48 44     87%     30.24        
Jun 20 02:36 Calm   Clear   49 45     86%     30.24        
Jun 20 02:31 Calm   Clear   49 45     86%     30.24        
Jun 20 02:16 Calm   Clear   49 45     86%     30.24        
Jun 20 02:11 Calm   Clear   49 45     86%     30.24        
Jun 20 02:06 Calm   Clear   49 45     85%     30.24        
Jun 20 01:56 Calm   Clear   49 45     85%     30.24        
Jun 20 01:51 Calm   Clear   49 45     85%     30.24        
Jun 20 01:46 Calm   Clear   49 45     86%     30.24        
Jun 20 01:41 Calm   Clear   50 46     85%     30.24        
Jun 20 01:21 Calm   Clear   50 46     85%     30.25        
Jun 20 01:16 Calm   Clear   50 46     85%     30.25        
Jun 20 01:06 Calm   Clear   50 46     85%     30.25        
Jun 20 01:01 Calm   Clear   50 45     84%     30.25        
Jun 20 00:56 Calm   Clear   50 45     84%     30.25        
Jun 20 00:51 Calm   Clear   51 46     84%     30.25        
Jun 20 00:41 Calm   Clear   51 46     84%     30.25        
Jun 20 00:36 Calm   Clear   51 46     84%     30.26        
Jun 20 00:31 Calm   Clear   51 46     83%     30.26        
Jun 20 00:26 Calm   Clear   51 46     83%     30.26        
Jun 20 00:21 Calm   Clear   51 46     82%     30.24        
Jun 20 00:16 Calm   Clear   52 47     82%     30.24        
Jun 20 00:11 Calm   Clear   52 46     81%     30.24        
Jun 20 00:06 Calm   Clear   52 46     81%     30.24        
Jun 20 00:01 Calm   Clear   52 46     81%     30.25        
Jun 19 23:56 Calm   Clear   52 46     81%     30.25        
Jun 19 23:51 Calm   Clear   52 46     81%     30.25        
Jun 19 23:46 Calm   Clear   52 47     82%     30.25        
Jun 19 23:41 Calm   Clear   52 47     82%     30.25        
Jun 19 23:36 Calm   Clear   52 46     81%     30.25        
Jun 19 23:31 Calm   Clear   53 47     81%     30.25        
Jun 19 23:21 Calm   Clear   53 47     80%     30.25        
Jun 19 23:16 Calm   Clear   53 47     80%     30.25        
Jun 19 23:11 Calm   Clear   53 47     80%     30.25        
Jun 19 23:06 Calm   Clear   53 47     80%     30.25        
Jun 19 23:01 Calm   Clear   53 47     79%     30.25        
Jun 19 22:56 Calm   Clear   54 48     79%     30.25        
Jun 19 22:51 Calm   Clear   54 48     79%     30.25        
Jun 19 22:46 Calm   Clear   54 48     79%     30.25        
Jun 19 22:41 Calm   Clear   54 47     78%     30.25        
Jun 19 22:36 Calm   Clear   54 47     78%     30.25        
Jun 19 22:31 Calm   Clear   55 48     77%     30.25        
Jun 19 22:26 Calm   Clear   55 48     77%     30.25        
Jun 19 22:16 Calm   Clear   55 48     76%     30.25        
Jun 19 22:11 Calm   Clear   55 48     76%     30.24        
Jun 19 22:06 Calm   Clear   55 48     76%     30.24        
Jun 19 22:01 Calm   Clear   56 48     75%     30.24        
Jun 19 21:56 Calm   Clear   56 48     75%     30.27        
Jun 19 21:51 Calm   Clear   56 48     75%     30.27        
Jun 19 21:46 Calm   Clear   56 48     75%     30.27        
Jun 19 21:41 Calm   Clear   56 48     74%     30.27        
Jun 19 21:36 Calm   Clear   56 48     74%     30.27        
Jun 19 21:31 Calm   Clear   57 48     73%     30.27        
Jun 19 21:26 Calm   Clear   57 48     73%     30.26        
Jun 19 21:16 Calm   Clear   57 48     72%     30.26        
Jun 19 21:11 Calm   Clear   58 49     72%     30.26        
Jun 19 21:06 Calm   Clear   58 49     71%     30.26        
Jun 19 21:01 Calm   Clear   58 49     71%     30.26        
Jun 19 20:56 Calm   Clear   58 49     71%     30.26        
Jun 19 20:51 Calm   Clear   59 49     70%     30.26        
Jun 19 20:46 Calm   Clear   59 49     70%     30.26        
Jun 19 20:41 Calm   Clear   59 49     69%     30.26        
Jun 19 20:36 Calm   Clear   60 50     69%     30.26        
Jun 19 20:31 Calm   Clear   60 49     68%     30.25        
Jun 19 20:26 Calm   Clear   60 49     68%     30.26        
Jun 19 20:21 Calm   Clear   60 49     67%     30.26        
Jun 19 20:16 Calm   Clear   61 50     66%     30.26        
Jun 19 20:11 Calm   Clear   61 50     66%     30.26        
Jun 19 20:06 Calm   Clear   61 49     65%     30.26        
Jun 19 20:01 Calm   Clear   61 49     65%     30.26        
Jun 19 19:56 Calm   Clear   62 50     65%     30.26        
Jun 19 19:51 Calm   Clear   62 50     64%     30.26        
Jun 19 19:41 Calm   Clear   62 49     63%     30.23        
Jun 19 19:36 Calm   Clear   63 50     62%     30.23        
Jun 19 19:31 WSW 1   Clear   63 49     61%     30.23        
Jun 19 19:26 Calm   Clear   63 49     61%     30.23        
Jun 19 19:16 SW 1   Clear   64 50     60%     30.23        
Jun 19 19:11 WSW 2   Clear   64 50     60%     30.23        
Jun 19 19:06 WSW 3   Clear   64 49     59%     30.23        
Jun 19 19:01 SW 2   Clear   65 50     59%     30.22        
Jun 19 18:56 WSW 1   Clear   65 50     58%     30.22        
Jun 19 18:51 Calm   Clear   65 50     58%     30.23        
Jun 19 18:46 SW 2   Clear   65 50     58%     30.22        
Jun 19 18:41 WSW 1   Clear   65 50     58%     30.22        
Jun 19 18:36 WSW 2   Clear   65 50     58%     30.23        
Jun 19 18:31 WSW 2   Clear   66 50     57%     30.23        
Jun 19 18:26 SW 5   Clear   66 50     56%     30.22        
Jun 19 18:21 WSW 1   Clear   66 50     56%     30.22        
Jun 19 18:16 SW 2   Clear   67 51     56%     30.22        
Jun 19 18:11 SW 2   Clear   67 50     55%     30.23        
Jun 19 18:06 WSW 3   Clear   67 50     55%     30.22        
Jun 19 18:01 SW 2   Clear   67 50     55%     30.23        
Jun 19 17:56 WSW 4   Clear   67 50     55%     30.23        
Jun 19 17:51 WSW 1   Clear   67 50     55%     30.23        
Jun 19 17:46 SW 4   Clear   67 50     54%     30.23        
Jun 19 17:41 WSW 4   Clear   67 50     54%     30.23        
Jun 19 17:36 WSW 5   Clear   67 50     54%     30.23        
Jun 19 17:31 WSW 2   Clear   68 51     54%     30.23        
Jun 19 17:26 WSW 6   Clear   68 50     53%     30.23        
Jun 19 17:21 SW 5   Clear   68 50     53%     30.23        
Jun 19 17:16 SW 3   Clear   68 50     52%     30.23        
Jun 19 17:11 WSW 3   Clear   68 50     52%     30.23        
Jun 19 17:06 WSW 4   Clear   69 50     51%     30.23        
Jun 19 17:01 SW 4   Clear   69 50     51%     30.23        
Jun 19 16:56 SW 3   Clear   69 50     51%     30.23        
Jun 19 16:51 WSW 4   Clear   69 50     51%     30.24        
Jun 19 16:39 WSW 4   Clear   69 50     50%     30.24        
Jun 19 16:32 WSW 3   Clear   69 50     50%     30.24        
Jun 19 16:27 WSW 2   Clear   69 50     51%     30.24        
Jun 19 16:22 WSW 4   Clear   69 50     50%     30.24        
Jun 19 16:17 WSW 6   Clear   69 50     50%     30.24        
Jun 19 16:12 WSW 6   Clear   69 50     50%     30.24        
Jun 19 16:07 SW 5   Clear   69 49     49%     30.24        
Jun 19 16:02 SW 3   Clear   69 49     49%     30.24        
Jun 19 15:57 SW 5   Clear   69 48     48%     30.24        
Jun 19 15:52 SW 5   Clear   69 49     49%     30.22        
Jun 19 15:47 WSW 5   Clear   69 48     48%     30.22        
Jun 19 15:42 WSW 5   Clear   69 48     48%     30.22        
Jun 19 15:37 WSW 6   Clear   69 48     47%     30.22        
Jun 19 15:32 WSW 4   Clear   69 47     46%     30.22        
Jun 19 15:27 WSW 4   Clear   69 46     43%     30.22        
Jun 19 15:22 WSW 5   Clear   69 46     43%     30.23        
Jun 19 15:13 WSW 6   Clear   70 46     42%     30.23        
Jun 19 15:08 WSW 5   Clear   70 45     40%     30.23        
Jun 19 15:03 SW 5   Clear   70 47     44%     30.23        
Jun 19 14:58 SW 5   Clear   69 42     38%     30.24        
Jun 19 14:53 WSW 3   Clear   69 44     41%     30.24        
Jun 19 14:48 WSW 5   Clear   69 46     43%     30.24        
Jun 19 14:43 SW 3   Clear   69 46     43%     30.24        
Jun 19 14:38 WSW 3   Clear   69 45     42%     30.24        
Jun 19 14:33 WSW 3   Clear   69 48     47%     30.24        
Jun 19 14:28 WSW 5   Clear   69 47     45%     30.24        
Jun 19 14:23 SW 3   Clear   69 47     45%     30.24        
Jun 19 14:18 WSW 6   Clear   68 46     46%     30.24        
Jun 19 14:08 WSW 4   Clear   68 46     46%     30.24        
Jun 19 14:03 SW 5   Clear   68 46     46%     30.24        
Jun 19 13:58 WSW 6   Clear   68 46     46%     30.24        
Jun 19 13:49 SW 5   Clear   68 47     47%     30.24        
Jun 19 13:30 WSW 5   Clear   68 47     47%     30.24        
Jun 19 13:25 NNW 1   Clear   67 48     50%     30.25        
Jun 19 13:20 WSW 7   Clear   67 48     50%     30.25        
Jun 19 13:15 WSW 3   Clear   67 50     54%     30.25        
Jun 19 13:10 WSW 3   Clear   67 49     53%     30.25        
Jun 19 13:05 WSW 6   Clear   67 49     52%     30.23        
Jun 19 13:00 WSW 4   Clear   67 49     53%     30.23        
Jun 19 12:55 WSW 3   Clear   67 49     53%     30.23        
Jun 19 12:50 WSW 5   Clear   66 47     51%     30.23        
Jun 19 12:45 WSW 5   Clear   67 47     49%     30.23        
Jun 19 12:40 WSW 6   Clear   67 46     47%     30.22        
Jun 19 12:35 WSW 5   Clear   67 47     48%     30.23        
Jun 19 12:30 WSW 4   Clear   67 46     46%     30.23        
Jun 19 12:25 WSW 6   Clear   67 45     45%     30.23        
Jun 19 12:20 WSW 6   Clear   67 43     42%     30.23        
Jun 19 12:15 WSW 4   Clear   67 43     41%     30.23        
Jun 19 12:10 WSW 4   Clear   67 44     43%     30.23        
Jun 19 12:05 WSW 3   Clear   67 42     40%     30.23        
Jun 19 12:00 WSW 4   Clear   66 41     40%     30.23        
Jun 19 11:55 WSW 5   Clear   66 42     42%     30.24        
Jun 19 11:50 SW 5   Clear   66 43     43%     30.24        
Jun 19 11:45 WSW 6   Clear   66 43     43%     30.24        
Jun 19 11:40 WSW 5   Clear   66 43     43%     30.24        
Jun 19 11:35 SW 3   Clear   66 40     38%     30.24        
Jun 19 11:30 WSW 4   Clear   67 40     37%     30.24        
Jun 19 11:25 WSW 3   Clear   66 39     37%     30.24        
Jun 19 11:20 SW 3   Clear   66 38     36%     30.24        
Jun 19 11:05 WSW 5   Clear   66 37     34%     30.24        
Jun 19 10:59 WSW 6   Clear   65 38     37%     30.24        
Jun 19 10:40 SW 3   Clear   65 43     44%     30.24        
Jun 19 10:35 SW 2   Clear   65 44     46%     30.24        
Jun 19 10:30 WSW 4   Clear   65 45     48%     30.23        
Jun 19 10:20 SW 2   Clear   64 43     46%     30.23        
Jun 19 10:15 WSW 4   Clear   64 42     45%     30.23        
Jun 19 10:05 SW 2   Clear   64 42     45%     30.21        
Jun 19 10:00 WSW 3   Clear   64 40     42%     30.21        
Jun 19 09:55 WSW 5   Clear   64 37     37%     30.21        
Jun 19 09:50 WSW 3   Clear   64 40     41%     30.2        
Jun 19 09:45 WSW 2   Clear   64 40     41%     30.21        
Jun 19 09:40 WSW 4   Clear   64 39     39%     30.2        
Jun 19 09:30 WSW 4   Clear   63 38     39%     30.2        
Jun 19 09:20 Calm   Clear   62 43     49%     30.2        
Jun 19 09:15 Calm   Clear   62 44     51%     30.2        
Jun 19 09:10 Calm   Clear   62 45     54%     30.21        
Jun 19 09:05 Calm   Clear   61 45     55%     30.21        
Jun 19 09:00 Calm   Clear   61 44     54%     30.21        
Jun 19 08:55 WSW 1   Clear   60 45     58%     30.21        
Jun 19 08:45 Calm   Clear   57 46     66%     30.21        
Jun 19 08:40 Calm   Clear   56 47     71%     30.2        
Jun 19 08:30 Calm   Clear   55 49     80%     30.21        
Jun 19 08:25 Calm   Clear   54 48     79%     30.21        
Jun 19 08:10 Calm   Clear   51 45     81%     30.21        
Jun 19 08:05 Calm   Clear   50 45     83%     30.22        
Jun 19 08:00 Calm   Clear   50 45     84%     30.22        
Jun 19 07:50 Calm   Clear   48 44     86%     30.22        
Jun 19 07:45 Calm   Clear   47 44     88%     30.22        
Jun 19 07:35 Calm   Clear   46 43     90%     30.2        
Jun 19 07:30 Calm   Clear   45 42     90%     30.19        
Jun 19 07:25 Calm   Clear   45 43     91%     30.19        
Jun 19 07:20 Calm   Clear   44 42     91%     30.19        
Jun 19 07:10 Calm   Clear   43 41     91%     30.19        
Jun 19 07:05 Calm   Clear   42 40     91%     30.19        
Jun 19 07:00 Calm   Clear   42 40     92%     30.19        
Jun 19 06:40 Calm   Clear   41 39     91%     30.19        
Jun 19 06:35 Calm   Clear   41 39     91%     30.19        
Jun 19 06:30 Calm   Clear   41 39     91%     30.19        
Jun 19 06:25 Calm   Clear   41 39     91%     30.19        
Jun 19 06:20 Calm   Clear   41 39     91%     30.19        
Jun 19 06:15 Calm   Clear   41 39     91%     30.18        
Jun 19 06:10 Calm   Clear   41 39     91%     30.19        
Jun 19 06:05 Calm   Clear   41 39     91%     30.19        
Jun 19 06:00 Calm   Clear   41 39     91%     30.18        
Jun 19 05:55 Calm   Clear   42 39     90%     30.18        
Jun 19 05:50 Calm   Clear   42 39     90%     30.18        
Jun 19 05:45 Calm   Clear   42 39     90%     30.18        
Jun 19 05:40 Calm   Clear   42 39     90%     30.18        
Jun 19 05:35 Calm   Clear   42 39     90%     30.18        
Jun 19 05:30 Calm   Clear   42 39     90%     30.18        
Jun 19 05:25 Calm   Clear   42 39     90%     30.18        
Jun 19 05:20 Calm   Clear   42 39     90%     30.18        
Jun 19 05:15 Calm   Clear   42 39     90%     30.17        
Jun 19 05:10 Calm   Clear   42 39     90%     30.17        
Jun 19 05:05 Calm   Clear   42 39     90%     30.17        
Jun 19 05:00 Calm   Clear   42 39     90%     30.17        
Jun 19 04:55 Calm   Clear   42 39     90%     30.17        
Jun 19 04:45 Calm   Clear   42 39     90%     30.17        
Jun 19 04:35 Calm   Clear   43 40     89%     30.17        
Jun 19 04:30 Calm   Clear   43 40     90%     30.17        
Jun 19 04:25 Calm   Clear   43 40     90%     30.17        
Jun 19 04:20 Calm   Clear   42 39     90%     30.17        
Jun 19 04:15 Calm   Clear   43 40     89%     30.18        
Jun 19 04:10 Calm   Clear   43 40     89%     30.18        
Jun 19 04:05 Calm   Clear   43 40     89%     30.18        
Jun 19 04:00 Calm   Clear   43 40     88%     30.18        
Jun 19 03:50 Calm   Clear   43 40     89%     30.18        
Jun 19 03:45 Calm   Clear   43 40     89%     30.18        
Jun 19 03:38 Calm   Clear   43 40     88%     30.18        
Jun 19 03:33 Calm   Clear   44 41     88%     30.18        
Jun 19 03:28 Calm   Clear   44 41     88%     30.18        
Jun 19 03:23 Calm   Clear   44 41     88%     30.19        
Jun 19 03:18 Calm   Clear   44 41     88%     30.18        
Jun 19 03:13 Calm   Clear   44 41     88%     30.18        
Jun 19 03:03 Calm   Clear   44 41     88%     30.19        
Jun 19 02:58 Calm   Clear   44 41     88%     30.19        
Jun 19 02:53 Calm   Clear   44 40     87%     30.19        
Jun 19 02:48 Calm   Clear   44 40     87%     30.19        
Jun 19 02:43 Calm   Clear   44 41     88%     30.18        
Jun 19 02:33 Calm   Clear   44 41     88%     30.18        
Jun 19 02:28 Calm   Clear   44 40     87%     30.18        
Jun 19 02:23 Calm   Clear   45 41     87%     30.18        
Jun 19 02:18 Calm   Clear   45 42     88%     30.19        
Jun 19 02:13 Calm   Clear   44 41     88%     30.19        
Jun 19 02:03 Calm   Clear   45 42     88%     30.19        
Jun 19 01:58 Calm   Clear   45 42     88%     30.19        
Jun 19 01:53 Calm   Clear   45 42     88%     30.19        
Jun 19 01:48 Calm   Clear   45 42     88%     30.19        
Jun 19 01:43 Calm   Clear   45 41     87%     30.19        
Jun 19 01:33 Calm   Clear   45 41     87%     30.19        
Jun 19 01:21 Calm   Clear   45 41     87%     30.2        
Jun 19 01:16 Calm   Clear   45 41     87%     30.19        
Jun 19 01:11 Calm   Clear   45 41     87%     30.19        
Jun 19 01:01 Calm   Clear   45 41     86%     30.19        
Jun 19 00:56 Calm   Clear   46 42     86%     30.19        
Jun 19 00:51 Calm   Clear   46 42     87%     30.19        
Jun 19 00:46 Calm   Clear   46 42     86%     30.19        
Jun 19 00:41 Calm   Clear   46 42     85%     30.19        
Jun 19 00:31 Calm   Clear   46 42     85%     30.19        
Jun 19 00:26 Calm   Clear   46 42     85%     30.19        
Jun 19 00:21 Calm   Clear   46 42     86%     30.19        
Jun 19 00:16 Calm   Clear   46 42     86%     30.19        
Jun 19 00:11 Calm   Clear   46 42     85%     30.19        
Jun 19 00:06 Calm   Clear   47 42     84%     30.19        
Jun 18 23:45 Calm   Clear   47 43     85%     30.19        
Jun 18 23:05 Calm   Clear   48 43     84%     30.19        
Jun 18 22:59 Calm   Clear   48 43     84%     30.19        
Jun 18 22:53 Calm   Clear   48 43     84%     30.19        
Jun 18 22:48 Calm   Clear   48 43     84%     30.19        
Jun 18 22:43 Calm   Clear   48 43     83%     30.19        
Jun 18 22:38 Calm   Clear   48 43     83%     30.19        
Jun 18 22:33 Calm   Clear   48 43     83%     30.2        
Jun 18 22:28 Calm   Clear   49 44     82%     30.2        
Jun 18 22:23 Calm   Clear   49 44     82%     30.2        
Jun 18 22:18 Calm   Clear   49 43     81%     30.2        
Jun 18 22:13 Calm   Clear   49 44     82%     30.2        
Jun 18 22:08 Calm   Clear   49 44     82%     30.2        
Jun 18 22:03 Calm   Clear   49 44     82%     30.2        
Jun 18 21:58 Calm   Clear   49 43     81%     30.19        
Jun 18 21:53 Calm   Clear   50 44     81%     30.19        
Jun 18 21:48 Calm   Clear   50 44     80%     30.2        
Jun 18 21:43 Calm   Clear   50 44     80%     30.2        
Jun 18 21:38 Calm   Clear   50 44     80%     30.19        
Jun 18 21:33 Calm   Clear   50 44     80%     30.19        
Jun 18 21:28 Calm   Clear   50 44     80%     30.19        
Jun 18 21:23 Calm   Clear   51 45     80%     30.2        
Jun 18 21:18 Calm   Clear   51 45     80%     30.19        
Jun 18 21:13 Calm   Clear   51 45     79%     30.19        
Jun 18 21:08 Calm   Clear   51 45     79%     30.19        
Jun 18 21:03 Calm   Clear   51 45     79%     30.19        
Jun 18 20:58 Calm   Clear   51 44     78%     30.19        
Jun 18 20:53 Calm   Clear   52 45     78%     30.19        
Jun 18 20:48 Calm   Clear   52 45     78%     30.19        
Jun 18 20:43 Calm   Clear   52 45     77%     30.19        
Jun 18 20:38 Calm   Clear   53 46     77%     30.19        
Jun 18 20:33 Calm   Clear   53 46     76%     30.19        
Jun 18 20:18 Calm   Clear   53 46     76%     30.19        
Jun 18 20:13 Calm   Clear   54 47     76%     30.19        
Jun 18 20:08 Calm   Clear   54 46     75%     30.19        
Jun 18 20:03 Calm   Clear   54 46     75%     30.19        
Jun 18 19:53 Calm   Clear   54 46     74%     30.19        
Jun 18 19:48 Calm   Clear   54 46     74%     30.19        
Jun 18 19:43 Calm   Clear   55 47     73%     30.19        
Jun 18 19:33 Calm   Clear   55 47     73%     30.18        
Jun 18 19:28 WSW 2   Clear   55 46     72%     30.18        
Jun 18 19:23 WSW 1   Clear   55 46     72%     30.17        
Jun 18 19:18 WSW 2   Clear   56 47     72%     30.17        
Jun 18 19:08 WSW 1   Clear   56 47     71%     30.17        
Jun 18 19:03 SW 2   Clear   56 46     70%     30.17        
Jun 18 18:58 WSW 2   Clear   56 46     70%     30.16        
Jun 18 18:53 WSW 3   Clear   57 47     70%     30.16        
Jun 18 18:48 WSW 5   Clear   57 47     69%     30.16        
Jun 18 18:43 SW 4   Clear   57 47     69%     30.16        
Jun 18 18:33 SW 4   Clear   57 47     69%     30.14        
Jun 18 18:28 WSW 2   Clear   57 47     69%     30.14        
Jun 18 18:18 WSW 3   Clear   58 47     68%     30.15        
Jun 18 18:13 SW 1   Clear   58 47     68%     30.15        
Jun 18 18:08 WSW 4   Clear   58 47     67%     30.15        
Jun 18 18:03 WSW 4   Clear   58 47     67%     30.15        
Jun 18 17:58 WSW 4   Clear   58 47     66%     30.15        
Jun 18 17:51 WSW 3   Clear   59 48     66%     30.15        
Jun 18 17:41 WSW 4   Clear   58 47     67%     30.15        
Jun 18 17:31 WSW 5   Clear   58 47     67%     30.15        
Jun 18 17:21 WSW 5   Clear   59 47     65%     30.16        
Jun 18 17:16 SW 5   Clear   59 47     65%     30.16        
Jun 18 17:11 SW 5   Clear   59 47     64%     30.16        
Jun 18 17:06 WSW 3   Clear   60 48     64%     30.16        
Jun 18 17:01 WSW 3   Clear   60 48     64%     30.16        
Jun 18 16:56 SW 4   Clear   60 48     64%     30.16        
Jun 18 16:51 WSW 3   Clear   60 48     64%     30.16        
Jun 18 16:46 WSW 3   Clear   60 48     64%     30.16        
Jun 18 16:41 SW 6   Clear   59 47     64%     30.16        
Jun 18 16:36 WSW 6   Clear   60 48     64%     30.16        
Jun 18 16:31 WSW 5   Clear   60 48     64%     30.16        
Jun 18 16:26 SW 5   Clear   59 47     64%     30.16        
Jun 18 16:21 SW 6   Clear   60 48     64%     30.16        
Jun 18 16:06 WSW 6   Clear   59 47     65%     30.16        
Jun 18 16:01 WSW 6   Clear   59 47     65%     30.16        
Jun 18 15:51 WSW 6   Clear   59 47     65%     30.16        
Jun 18 15:42 SW 4   Clear   59 47     65%     30.17        
Jun 18 15:37 Calm   Clear   59 48     67%     30.17        
Jun 18 15:32 WSW 3   Clear   59 48     66%     30.17        
Jun 18 15:27 SW 6   Clear   58 47     66%     30.17        
Jun 18 15:22 SW 8   Clear   59 47     65%     30.17        
Jun 18 15:17 SW 5   Clear   59 47     65%     30.17        
Jun 18 15:07 WSW 4   Clear   58 47     67%     30.17        
Jun 18 15:02 SW 4   Clear   58 47     66%     30.17        
Jun 18 14:57 WSW 5   Clear   58 47     66%     30.17        
Jun 18 14:52 SW 5   Clear   58 47     67%     30.17        
Jun 18 14:47 SW 6   Clear   58 47     66%     30.17        
Jun 18 14:42 WSW 5   Clear   58 47     67%     30.17        
Jun 18 14:37 WSW 5   Clear   58 47     66%     30.17        
Jun 18 14:32 WSW 5   Clear   58 46     65%     30.17        
Jun 18 14:27 WSW 5   Clear   58 46     65%     30.17        
Jun 18 14:22 WSW 6   Clear   59 47     64%     30.17        
Jun 18 14:17 WSW 3   Clear   59 46     63%     30.17        
Jun 18 14:12 WSW 4   Clear   60 47     62%     30.17        
Jun 18 14:07 WSW 5   Clear   60 46     60%     30.14        
Jun 18 13:57 WSW 4   Clear   60 46     59%     30.14        
Jun 18 13:47 WSW 4   Clear   59 45     59%     30.14        
Jun 18 13:42 SW 5   Clear   58 45     61%     30.14        
Jun 18 13:37 WSW 4   Clear   58 45     61%     30.14        
Jun 18 13:32 WSW 6   Clear   58 45     61%     30.14        
Jun 18 13:27 SW 3   Clear   58 45     61%     30.15        
Jun 18 13:22 SW 3   Clear   58 45     62%     30.15        
Jun 18 13:13 WSW 6   Clear   57 44     62%     30.15        
Jun 18 13:03 WSW 5   Clear   57 45     63%     30.15        
Jun 18 12:53 WSW 5   Clear   57 44     62%     30.15        
Jun 18 12:48 WSW 6   Clear   58 45     63%     30.15        
Jun 18 12:42 SW 3   Clear   57 44     61%     30.15        
Jun 18 12:24 WSW 5   Clear   56 44     64%     30.15        
Jun 18 12:19 WSW 7   Clear   56 44     64%     30.15        
Jun 18 12:10 WSW 6   Clear   57 44     61%     30.14        
Jun 18 11:59 WSW 4   Clear   57 43     60%     30.14        
Jun 18 11:54 WSW 3   Clear   57 43     60%     30.14        
Jun 18 11:49 WSW 4   Clear   57 43     60%     30.15        
Jun 18 11:44 WSW 6   Clear   57 43     59%     30.15        
Jun 18 11:39 SW 4   Clear   57 42     58%     30.14        
Jun 18 11:34 WSW 7   Clear   57 42     58%     30.14        
Jun 18 11:24 WSW 4   Clear   56 42     60%     30.15        
Jun 18 11:19 SW 3   Clear   56 44     64%     30.15        
Jun 18 11:09 SW 5   Clear   54 43     66%     30.15        
May 15 10:42 WSW 4   Clear   52 43     70%     30.1        
May 15 09:52 SW 3   Clear   50 42     74% 50   30.09        
May 15 09:17 SW 3   Clear   49 42     76% 49   30.09        
May 15 04:39 Calm   Clear   39 36     88%     30.04        
May 15 04:04 Calm   Clear   39 36     89%     30.04        
May 15 02:59 Calm   Clear   38 35     89%     30.04        
May 15 00:46 Calm   Clear   42 38     86%     30.07        
May 15 00:16 Calm   Clear   43 39     86%     30.08        
May 14 20:29 Calm   Clear   50 45     82%     30.05        
May 14 19:44 Calm   Clear   50 44     80%     30.04        
May 14 18:11 SW 2   Clear   53 46     77%     30.03        
May 14 16:56 WSW 3   Clear   54 44     69%     30.04        
May 14 16:51 WSW 2   Clear   54 43     67%     30.04        
May 14 15:01 SW 4   Clear   56 44     65%     30.03        
May 14 14:51 SW 7   Clear   56 45     67%     30.03        
May 14 10:36 SW 1   Clear   51 43     73%     30.05        
May 14 07:23 Calm   Clear   38 36     93%     30.05        
May 14 05:48 Calm   Clear   37 34     89%     30.03        
May 14 03:29 Calm   Clear   39 36     90%     30.04        
May 14 02:24 Calm   Clear   40 37     89%     30.01        
May 13 23:47 Calm   Clear   45 41     85%     30.04        
May 13 23:27 Calm   Clear   45 41     85%     30.04        
May 13 22:42 Calm   Clear   47 42     82%     30.06        
May 13 22:32 Calm   Clear   47 42     82%     30.06        
May 13 21:07 Calm   Clear   46 41     83%     30.06        
May 13 19:07 Calm   Clear   46 42     85%     30.05        
May 13 17:07 Calm   Clear   47 41     81%     30.04        
May 13 15:47 SW 3   Clear   49 42     76% 49   30.03        
May 13 13:45 SW 1   Clear   48 40     74%     30.05        
May 13 12:45 SW 5   Clear   50 38     64% 48   30.05        
May 13 12:10 SW 3   Clear   51 39     63%     30.06        
May 13 08:15 Calm   Clear   42 33     71%     30.02        
May 13 06:30 Calm   Clear   33 30     88%     30.02        
May 13 06:15 Calm   Clear   33 30     88%     30.01        
May 13 05:10 Calm   Clear   33 30     88%     30.01        
May 13 02:38 Calm   Clear   34 30     84%     30        
May 13 01:41 Calm   Clear   35 30     83%     30        
May 12 23:54 Calm   Clear   37 31     80%     30.03        
May 12 20:59 Calm   Clear   43 33     67%     30.01        
May 12 18:44 WSW 1   Clear   47 32     55%     29.96        
May 12 13:58 SW 2   Clear   49 35     59%     29.97        
Notice The following observation data may not be complete
May 12 11:08     Clear            %              
May 12 09:56 WSW 4   Clear   47 33     59% 45   29.92        
Notice The following observation data may not be complete
May 12 09:06     Clear            %              
May 12 08:16 WSW 2   Clear   42 36     78%     29.9        
May 12 06:21 Calm   Clear   35 32     89%     29.87        
May 12 06:06 Calm   Clear   35 32     88%     29.87        
May 12 05:26 Calm   Clear   35 32     89%     29.86        
May 12 01:27 Calm   Clear   38 34     85%     29.86        
May 12 00:47 Calm   Clear   39 35     85%     29.85        
May 12 00:42 Calm   Clear   39 35     84%     29.85        
May 12 00:12 Calm   Clear   40 36     84%     29.87        
May 11 22:37 Calm   Clear   44 39     82%     29.86        
May 11 22:22 Calm   Clear   45 40     81%     29.86        
May 11 22:12 Calm   Clear   45 40     81%     29.85        
May 11 21:40 Calm   Clear   45 40     81%     29.85        
Notice The following observation data may not be complete
May 11 21:00     Clear            %              
May 11 19:10 SW 3   Clear   49 42     78% 49   29.82        
May 11 11:45 SW 3   Clear   53 46     77%     29.9        
May 11 08:53 WSW 1   Clear   51 45     79%     29.93        
May 11 06:32 Calm   Clear   39 36     90%     29.94        
Jun 12 00:33 Calm   Clear   31 29     91%              
Jun 11 21:16 Calm   Clear   36 33     87%     29.92        
Jun 11 19:36 SW 2   Clear   37 34     87%              
Jun 11 14:06 SW 1   Clear   37 36     96%              
Jun 11 13:51 Calm   Clear   36 35     95%              
Jun 11 13:26 WSW 2   Clear   37 36     95%              
Jun 11 06:04 Calm   Clear   36 33     87%              
Jun 11 02:39 Calm   Clear   36 33     88%              
Jun 11 01:35 Calm   Clear   37 33     86%              
Jun 11 00:18 Calm   Clear   39 34     83%              
Jun 11 00:08 Calm   Clear   40 35     83%              
Jun 10 20:37 Calm   Clear   45 44     95%     29.96        
Jun 10 20:17 WSW 1   Clear   45 44     95%              
Jun 10 16:43 SW 3   Clear   48 45     91% 47            
Notice The following observation data may not be complete
Jun 10 15:55     Clear            %              
Jun 10 15:45 SW 5   Clear   49 46     89% 47            
Jun 10 15:20 SW 5   Clear   51 47     87%              
Jun 10 11:29 SW 3   Clear   47 45     93% 46            
Jun 10 07:41 Calm   Clear   47 41     80%     29.98        
Jun 10 04:27 Calm   Clear   39 36     89%     29.98        
Jun 10 04:02 Calm   Clear   39 36     88%     29.99        
Jun 10 03:49 Calm   Clear   39 36     88%     29.99        
Jun 10 02:24 W 1   Clear   40 36     86%     30.01        
Jun 09 22:59 Calm   Clear   46 40     79%     30.06        
Jun 09 22:39 Calm   Clear   47 40     76%     30.05        
Jun 09 21:42 Calm   Clear   50 47     88%     30.04        
Jun 09 21:22 Calm   Clear   51 47     87%     30.03        
Jun 09 20:37 Calm   Clear   52 49     90%     30.03        
Jun 09 20:27 Calm   Clear   51 48     90%     30.03        
Jun 09 18:16 WSW 4   Clear   53 49     85%     30.04        
Jun 09 17:41 WSW 3   Clear   54 48     81%     30.05        
Jun 09 15:51 WSW 4   Clear   58 48     69%     30.04        
Jun 09 07:05 Calm   Clear   41 38     90%     30.07        
Jun 09 06:15 Calm   Clear   40 37     88%     30.08        
Jun 09 04:55 Calm   Clear   41 37     87%     30.09        
Jun 09 03:25 Calm   Clear   42 38     86%     30.1        
Jun 09 03:15 Calm   Clear   42 38     86%     30.1        
Jun 08 23:04 Calm   Clear   47 41     81%     30.14        
Jun 08 22:21 Calm   Clear   48 41     78%     30.14        
Jun 08 16:28 SW 3   Clear   59 45     59%     30.14        
Jun 08 13:28 WSW 4   Clear   57 45     65%     30.17        
Jun 08 12:33 WSW 3   Clear   58 46     65%     30.16        
Jun 08 12:18 WSW 5   Clear   58 46     64%     30.16        
Jun 08 10:08 WSW 4   Clear   56 41     56%     30.15        
Jun 08 08:18 Calm   Clear   53 41     64%     30.13        
Jun 08 07:13 Calm   Clear   45 39     78%     30.13        
Jun 08 06:55 Calm   Clear   44 38     80%     30.12        
Notice The following observation data may not be complete
Jun 08 05:15 Calm   Clear     37      %     30.12        
Jun 08 03:41 Calm   Clear   44 38     78%     30.14        
Jun 08 02:31 Calm   Clear   45 38     77%     30.13        
Jun 07 23:56 Calm   Clear   49 39     68%     30.14        
Jun 07 18:16 SW 1   Clear   65 43     45%     30.13        
Jun 07 16:46 WSW 2   Clear   69 44     41%     30.13        
Jun 07 11:49 SW 6   Clear   67 40     37%     30.14        
Jun 07 09:04 WSW 1   Clear   62 35     37%     30.11        
Jun 07 06:08 Calm   Clear   42 36     78%     30.13        
Jun 06 10:25 WSW 4   Clear   65 37     36%     30.16        
Jun 06 09:28 SW 3   Clear   64 34     33%     30.16        
Jun 06 08:28 Calm   Clear   54 39     57%     30.14        
Notice The following observation data may not be complete
Jun 06 08:13 Calm   Clear     37      %     30.14        
Notice The following observation data may not be complete
Jun 06 08:03 Calm   Clear     37      %     30.14        
Notice The following observation data may not be complete
Jun 06 07:01 Calm   Clear     33      %     30.15        
Jun 06 06:26 Calm   Clear   40 32     73%     30.14        
Notice The following observation data may not be complete
Jun 06 06:16 Calm   Clear     32      %     30.14        
Notice The following observation data may not be complete
Jun 06 05:41 Calm   Clear     32      %     30.14        
Notice The following observation data may not be complete
Jun 06 05:01 Calm   Clear     33      %     30.15        
Jun 06 03:13 Calm   Clear   43 36     75%     30.15        
Notice The following observation data may not be complete
Jun 06 02:33 Calm   Clear     37      %     30.15        
Jun 06 01:17 Calm   Clear   46 40     79%     30.16        
Jun 06 01:12 Calm   Clear   47 41     79%     30.16        
Jun 06 00:22 Calm   Clear   48 41     78%     30.16        
Jun 05 22:03 Calm   Clear   53 43     69%     30.17        
Jun 05 19:40 Calm   Clear   61 45     56%     30.14        
Jun 05 15:51 WSW 5   Clear   68 44     42%     30.11